Preview of NWS' New Version of Forecast
This preview is not operational and should not be used for support decisions.

Regional Weather Roundup (RWR)

Issued by National Weather Service (NWS)

                            
000
ASUS45 KABQ 231101
RWRNM 
NEW MEXICO REGIONAL WEATHER ROUNDUP
NATIONAL WEATHER SERVICE ALBUQUERQUE NM
500 AM MDT FRI AUG 23 2019

NOTE: "FAIR" MEANS FEW OR NO CLOUDS BELOW 12,000 FEET AGL WITH NO
       SIGNIFICANT WEATHER OR OBSTRUCTIONS TO VISION.

      THIS PRODUCT IS RELEASED AS TWO VERSIONS.  ONE VERSION NEAR
      THE TOP OF THE HOUR CONTAINING PRELIMINARY DATA FROM ALBUQUERQUE
      AND OTHER STATIONS.  A FINAL VERSION WITH ADDITIONAL DATA IS 
      ISSUED ABOUT 10 MINUTES AFTER THE HOUR.
 
NMZ501-503-504-510>518-231200-
NORTHWEST PLATEAU/NORTHCENTRAL MOUNTAINS
  
CITY           SKY/WX    TMP DP  RH WIND       PRES   REMARKS
FARMINGTON     FAIR      63  35  35 E8        30.06S                  
LOS ALAMOS       N/A     63  48  58 S7        30.22F                  
SANTA FE       FAIR      63  50  62 SE6       30.16S                  
TAOS           FAIR      53  42  66 CALM      30.23S                  
ANGEL FIRE     CLOUDY    36  35  96 CALM      30.33R FOG              

$$
NMZ402-403-502-505>509-231200-
WESTCENTRAL MOUNTAINS/SOUTHWEST MOUNTAINS
  
CITY           SKY/WX    TMP DP  RH WIND       PRES   REMARKS
GALLUP         FAIR      54  25  32 NE7       30.17R                  
GRANTS         FAIR      49  30  48 NW3       30.20S                  
SILVER CITY    FAIR      67  50  54 N10       30.10R                  

$$
NMZ407-409-411-412-231200-
SOUTHERN DESERTS
  
CITY           SKY/WX    TMP DP  RH WIND       PRES   REMARKS
DEMING         FAIR      72  60  66 W6        30.03R                  
LAS CRUCES     FAIR      71  57  61 SE3       30.05S                  
HOLLOMAN AFB   CLOUDY    77  56  48 SE10      30.03S                  
ALAMOGORDO     FAIR      75  54  46 S9        30.03S                  
T OR C         FAIR      73  51  46 CALM      30.04R                  

$$
NMZ519>523-231200-
CENTRAL VALLEYS/CENTRAL HIGHLANDS
  
CITY           SKY/WX    TMP DP  RH WIND       PRES   REMARKS
ALBUQUERQUE    MOCLDY    71  49  45 NW7       30.08R                  
DOUBLE EAGLE   FAIR      64  48  56 NW8       30.12R                  
CLINES CORNERS FAIR      56  53  90 SE3       30.22F                  
BELEN          FAIR      65  43  44 W6        30.07S                  
SOCORRO        FAIR      70  50  48 S7        30.05S                  

$$
NMZ524>526-539-540-231200-
SOUTHCENTRAL MOUNTAINS
  
CITY           SKY/WX    TMP DP  RH WIND       PRES   REMARKS
RUIDOSO        MOCLDY    59  50  72 N6        30.23S                  

$$
NMZ527>531-231200-
NORTHEAST HIGHLANDS/NORTHEAST PLAINS
  
CITY           SKY/WX    TMP DP  RH WIND       PRES   REMARKS
LAS VEGAS      FAIR      53  45  74 SW10      30.20S                  
RATON          FAIR      51  43  74 N7        30.15R                  
CLAYTON        FAIR      63  48  58 SW10      30.05R                  

$$
NMZ532>537-231200-
EASTCENTRAL PLAINS
  
CITY           SKY/WX    TMP DP  RH WIND       PRES   REMARKS
SANTA ROSA     FAIR      65  57  74 SW7       30.06S                  
TUCUMCARI      FAIR      63  55  75 NW6       29.99S                  
CANNON AFB     FAIR      63  57  81 CALM      30.04R                  
CLOVIS AIRPORT FAIR      61  58  90 W7        30.04S                  

$$
NMZ028-029-538-231200-
SOUTHEAST PLAINS
  
CITY           SKY/WX    TMP DP  RH WIND       PRES   REMARKS
ROSWELL        FAIR      73  60  63 SE10      30.01F                  
ARTESIA        FAIR      72  59  64 SE8       30.04S                  
CARLSBAD       FAIR      69  59  70 E8        30.01R                  
HOBBS          MOCLDY    68  63  83 S9        30.02F                  


$$